Location: Chippewa Lake
(41.0698°N, 81.9010°W)
Time: 21:25:53
(UTC+00:00)

Cosmos 1300 - Pass Details

Date: 09 May 2021
Orbit: 510 x 512 km, 82.5° (Epoch: 17 June)

Event Time Altitude Azimuth Distance (km) Brightness Sun altitude
Rises 08:38:34 0° 355° (N) 2,635 6.8 -16.2°
Reaches altitude 10° 08:40:43 10° 358° (N) 1,744 5.9 -15.9°
Maximum altitude 08:44:31 65° 81° (E) 566 3.0 -15.3°
Drops below altitude 10° 08:48:17 10° 164° (SSE) 1,728 5.1 -14.8°
Enters shadow 08:49:36 - 166° (SSE) 2,273 5.7 -14.6°
